Wind_Speed
19 19 19 19 19 18 17 16 15 14 14 15 16 17 18 20 23 14 7 8 3 3 6 10 9 7 3 3 3 2 2 8 8 8 2 8 4 2 3 6 6 4 4 9 13
20 20 20 20 20 20 18 17 15 14 14 15 17 18 18 19 18 11 5 9 6 5 5 4 4 0 2 4 3 4 5 9 5 8 11 16 6 13 8 14 8 12 14 21 10
21 21 22 22 22 20 19 17 15 14 14 16 18 17 14 13 4 5 2 6 4 4 6 3 4 2 2 2 4 5 6 3 2 1 3 13 11 10 9 16 3 11 14 14 2
22 22 23 23 23 22 20 19 16 15 14 16 16 12 10 3 2 4 0 3 4 3 3 3 2 2 4 5 4 4 4 2 2 5 5 11 14 14 15 22 8 7 9 7 8
23 23 24 24 24 24 22 19 17 14 13 13 12 9 3 3 7 2 3 4 6 5 5 3 1 1 2 2 4 3 4 5 6 8 7 10 16 17 27 20 7 8 7 10 10
26 26 27 26 25 25 22 19 16 13 11 10 8 5 2 3 4 5 7 8 9 8 4 6 5 6 3 2 1 2 2 6 5 5 5 9 11 8 25 10 11 8 9 9 10
28 29 30 29 27 25 23 19 14 11 10 8 4 1 1 9 1 3 10 12 13 17 4 6 5 2 4 4 1 3 4 5 4 6 7 6 13 18 16 14 13 12 8 7 10
30 30 33 30 28 27 24 16 12 10 10 5 0 2 6 3 8 7 8 11 8 6 18 14 7 2 3 2 6 4 4 3 5 2 6 10 18 4 7 7 12 10 9 8 9
31 31 33 30 29 26 20 15 12 5 2 4 3 3 8 9 3 7 6 3 8 6 7 6 4 2 4 3 5 6 1 2 6 3 4 6 3 5 7 7 9 11 9 12 10
31 33 33 29 24 21 17 7 7 8 8 4 2 2 5 3 5 6 3 9 3 3 6 4 4 2 3 4 2 3 3 4 5 6 4 11 8 6 7 5 8 7 8 12 12
31 31 33 28 19 15 16 3 5 3 3 5 4 4 6 9 12 5 4 2 2 6 3 2 4 3 6 7 6 3 3 4 5 6 7 11 17 9 6 5 7 7 8 10 11
32 31 30 23 15 8 6 3 2 5 7 7 8 7 16 6 5 6 0 3 2 2 3 6 2 6 4 3 4 2 3 1 4 4 5 9 22 15 5 6 5 7 8 9 10
30 32 27 17 7 4 5 6 13 6 2 7 4 4 6 10 5 7 4 1 1 2 1 3 7 6 1 5 3 1 3 2 3 5 4 6 15 8 2 3 6 6 6 8 9
31 28 22 13 2 8 2 18 9 2 3 4 2 4 3 2 3 8 7 6 1 6 2 4 4 2 5 3 0 3 2 2 6 6 5 4 13 8 5 8 5 8 8 10 11
34 24 14 4 3 0 8 17 8 2 4 3 0 3 2 4 2 4 6 4 7 6 5 8 4 5 3 1 1 4 3 3 2 4 4 2 5 13 15 17 9 9 9 7 7
30 15 7 0 3 6 16 15 2 4 2 3 3 4 4 4 4 5 3 3 1 4 3 7 1 2 3 1 1 3 3 5 4 2 2 8 7 13 1 3 6 7 8 7 9
21 6 2 2 2 12 17 3 4 4 5 5 3 6 3 4 5 5 1 5 1 2 2 4 2 2 4 3 4 6 5 4 4 2 5 3 3 12 15 15 6 5 9 8 9
12 6 2 4 7 13 6 4 5 2 2 2 4 5 3 7 5 7 3 3 5 4 2 2 4 5 3 3 4 5 6 4 4 3 10 9 7 7 5 6 5 7 8 11 12
6 4 3 4 9 9 5 4 4 1 3 3 6 2 3 4 2 7 5 3 2 2 3 2 5 4 6 3 5 2 3 5 4 4 2 5 9 9 16 7 7 7 8 12 12
5 6 4 5 7 5 4 2 2 2 4 1 1 1 3 2 1 4 2 4 5 4 5 2 4 6 3 3 3 6 4 1 2 3 4 5 7 10 10 14 7 10 12 12 11
5 3 5 6 6 5 3 4 4 5 5 5 5 4 5 2 2 2 5 6 5 3 4 4 5 4 1 4 6 2 1 2 2 4 3 4 5 5 10 10 9 12 13 11 14
5 2 12 9 4 1 1 2 5 5 4 4 5 6 5 4 4 4 5 5 5 6 5 5 4 4 9 13 8 4 6 6 4 5 3 4 19 9 8 8 9 13 12 11 10
2 3 5 3 2 3 6 5 4 3 4 4 3 1 2 3 2 5 4 3 5 5 5 5 1 3 7 4 4 3 4 4 2 2 14 9 12 5 11 14 12 13 9 9 10
2 3 4 4 1 2 3 4 5 5 1 2 4 1 4 3 4 5 4 4 2 1 11 6 5 7 7 9 3 10 12 14 13 5 8 15 29 19 11 10 12 13 7 7 15
3 0 2 4 2 2 3 3 3 4 5 5 4 2 4 4 4 6 5 6 8 8 5 7 7 7 10 13 13 17 19 18 17 21 15 19 18 24 7 8 8 7 8 13 12
2 3 4 3 4 5 1 0 2 3 3 5 2 7 6 6 7 8 6 5 9 6 4 2 4 4 4 10 16 19 17 17 18 14 9 11 17 13 8 7 7 7 10 13 12
5 3 3 3 3 2 3 1 3 8 7 4 4 5 6 8 5 13 13 14 14 8 6 6 4 2 16 11 10 11 14 7 4 6 4 8 11 6 12 11 11 11 12 14 14
Wind_Direction
347 343 341 338 335 332 329 327 326 325 326 324 327 327 326 322 316 308 232 228 181 200 266 291 282 259 240 240 214 104 135 221 232 249 281 299 314 162 299 303 320 311 301 314 135
346 343 340 338 334 331 328 326 325 325 325 325 325 322 322 325 317 269 275 186 221 249 269 271 296 327 190 213 215 173 197 210 209 237 311 296 312 319 338 326 314 332 345 4 78
344 342 339 336 334 331 327 324 321 322 325 327 327 321 323 325 307 262 202 169 198 241 249 262 276 274 214 198 211 203 231 149 247 255 276 283 298 304 314 292 334 313 319 329 343
343 339 337 335 332 330 326 322 318 318 324 329 329 329 331 345 100 298 212 198 197 203 229 197 205 177 199 212 235 259 247 244 279 283 267 272 298 285 280 264 288 277 290 292 295
345 342 338 335 332 327 323 318 314 315 324 334 339 340 353 333 254 201 204 206 221 218 233 190 146 175 227 273 329 223 277 291 304 278 269 278 275 282 273 271 277 285 268 271 262
344 345 340 332 328 326 320 315 308 309 319 332 344 344 0 307 254 259 238 217 231 225 231 187 199 206 158 271 190 295 254 281 273 265 244 253 264 257 273 326 298 275 265 254 250
346 344 341 334 328 325 321 317 310 304 307 319 345 356 314 238 319 345 258 245 265 230 233 215 212 86 151 300 218 282 325 326 228 220 223 230 263 247 273 302 289 284 283 279 263
346 344 342 335 331 327 323 323 316 298 297 279 105 176 250 297 306 272 244 256 255 231 225 273 270 126 132 269 5 7 49 8 284 238 251 180 251 305 355 348 314 334 340 315 290
345 344 341 336 335 333 333 331 320 308 208 176 158 178 275 324 249 244 237 253 303 281 252 283 120 142 16 52 5 14 345 282 301 285 267 188 313 332 317 333 311 320 328 324 315
344 347 342 339 342 341 343 358 50 100 106 110 256 331 279 289 252 272 243 254 261 324 359 60 50 113 40 72 258 291 324 298 283 308 309 294 274 260 274 272 286 303 313 315 315
344 346 343 340 346 351 356 55 20 6 188 218 197 251 276 309 318 257 252 291 51 51 14 345 74 199 245 210 227 234 220 230 275 323 344 296 301 305 272 267 285 292 303 304 302
343 344 340 341 341 355 16 65 227 255 306 250 236 239 260 263 304 284 223 161 82 302 357 13 280 226 271 262 212 184 193 272 277 311 323 307 297 298 267 257 257 293 302 296 307
343 342 339 338 340 25 346 351 333 304 33 299 210 197 223 155 223 259 159 180 161 287 90 169 251 301 328 331 354 222 124 285 264 305 260 299 283 249 300 298 295 284 291 295 283
343 343 338 345 83 351 331 342 341 240 56 276 252 275 149 158 267 232 202 162 198 209 232 249 278 319 350 313 60 304 22 29 344 18 305 62 293 262 234 263 297 296 270 272 280
343 344 336 356 339 38 320 338 332 100 56 179 273 275 23 177 280 267 175 98 215 205 116 248 263 301 309 196 286 242 352 337 287 299 301 169 273 262 316 292 263 262 290 315 321
345 346 339 142 293 340 335 329 112 50 33 26 40 325 1 265 263 283 182 85 142 172 232 253 228 145 149 334 13 25 349 2 21 58 294 220 205 296 174 333 319 299 295 288 292
351 360 313 227 303 331 332 53 47 86 330 12 327 329 2 310 1 8 218 37 61 347 341 342 358 36 78 9 352 57 53 337 338 346 237 299 305 263 301 298 285 280 293 281 267
3 36 9 269 331 326 350 55 77 22 355 22 307 314 85 9 357 352 70 107 30 61 65 161 306 187 182 159 229 257 159 163 263 237 285 293 245 253 234 228 240 248 266 281 283
12 7 347 339 318 332 67 58 168 232 251 296 322 41 341 352 74 23 351 154 122 102 146 240 264 274 295 269 131 242 188 207 214 250 251 229 267 285 275 242 281 281 288 277 297
9 350 322 340 316 14 72 219 234 315 333 153 95 290 298 274 47 18 277 209 167 178 145 215 278 251 281 9 272 169 181 233 15 272 256 270 263 247 294 285 284 306 296 304 305
12 38 4 333 315 45 111 249 286 314 315 189 212 244 253 245 238 254 248 307 168 164 143 162 169 277 9 210 206 266 277 88 151 155 221 294 252 226 256 277 269 280 285 296 292
3 30 348 351 45 28 345 284 282 287 321 267 185 205 215 233 243 232 234 232 193 172 187 198 162 246 239 269 235 186 211 168 141 269 236 275 276 249 259 260 258 269 277 288 283
11 277 346 4 87 331 313 295 266 304 352 320 297 322 354 258 271 225 225 263 328 175 179 180 208 308 324 359 355 136 190 182 201 316 256 258 267 305 320 313 286 278 281 296 321
50 0 329 31 40 87 341 278 311 314 250 327 268 36 10 271 223 280 269 281 25 230 296 188 172 184 239 251 231 290 275 266 256 248 269 237 273 272 283 298 311 306 287 324 354
27 14 172 305 330 350 260 274 284 320 341 337 300 45 277 263 268 248 248 297 280 269 277 163 207 207 239 256 267 264 266 268 262 260 251 277 265 278 262 273 301 313 329 342 322
54 18 355 287 304 324 286 212 298 331 277 278 301 301 298 235 226 284 282 238 248 270 209 181 260 201 255 250 250 268 271 264 266 269 253 274 280 278 278 285 298 316 320 307 301
12 28 102 277 322 339 243 48 323 321 278 256 303 307 266 264 274 279 256 254 246 226 203 177 164 77 281 257 263 270 250 220 236 236 213 261 270 291 306 314 318 321 308 304 326
Height
814 810 806 803 799 796 794 792 789 788 785 783 781 778 775 772 768 765 762 755 755 756 757 757 756 756 756 757 754 753 779 779 768 761 754 738 745 732 728 732 727 723 725 718 708
812 809 805 802 798 795 792 790 788 786 784 782 779 776 773 769 765 760 752 752 754 754 758 757 755 756 760 758 756 762 778 770 753 749 750 739 746 738 736 734 728 721 715 716 716
811 807 804 801 797 794 790 788 786 784 783 780 777 774 771 769 767 753 752 752 754 755 757 757 757 758 760 756 758 758 763 751 748 747 751 747 743 736 742 738 733 733 724 717 720
809 806 802 798 795 791 788 785 783 782 780 778 775 772 770 768 770 752 751 753 754 756 757 757 758 760 762 763 754 762 750 748 748 748 751 750 738 740 736 727 726 726 725 721 721
808 804 800 796 792 788 785 782 780 779 778 776 774 771 770 769 761 752 752 753 754 756 757 756 757 759 763 759 756 758 754 752 749 748 746 744 742 740 721 719 724 722 724 723 722
807 802 798 793 789 785 781 779 777 777 776 775 773 772 772 770 752 752 753 753 753 755 755 755 754 754 758 758 761 756 755 754 748 747 745 747 741 738 710 716 720 721 721 720 718
804 800 795 790 786 782 778 775 774 774 773 773 772 773 773 763 753 753 752 752 752 751 752 750 750 752 755 757 754 753 758 754 748 743 741 736 740 731 721 714 717 719 718 718 716
802 797 792 787 782 777 773 772 771 771 770 771 771 773 769 754 753 752 751 751 750 749 750 748 748 749 752 753 758 760 763 769 750 739 734 737 737 726 723 722 719 717 716 719 715
800 795 789 784 778 773 770 768 767 767 768 770 772 772 766 753 752 750 750 749 748 748 747 747 748 754 755 766 776 774 774 767 756 737 739 742 745 731 726 725 723 718 716 713 713
798 793 787 781 776 771 768 766 766 767 769 771 772 775 758 757 751 749 749 748 748 748 748 750 760 765 776 780 788 775 773 766 764 747 742 744 742 736 728 725 724 721 719 712 707
795 789 784 779 774 772 768 767 771 772 770 767 765 765 759 754 751 748 747 748 748 754 764 758 770 774 768 770 765 768 771 770 761 751 756 748 736 735 728 725 725 721 720 716 710
792 786 780 776 773 771 770 771 772 774 772 758 759 760 755 757 759 747 747 753 754 764 761 770 772 759 756 756 761 762 767 770 763 753 753 753 735 727 725 723 719 720 718 715 709
789 784 777 774 772 771 772 772 771 770 777 761 754 754 751 752 755 749 747 749 756 762 763 770 762 754 755 759 760 762 766 766 767 757 750 750 734 729 720 719 717 716 715 714 710
786 781 776 771 774 772 771 771 770 769 786 764 756 751 748 748 753 741 742 750 756 762 760 763 754 752 758 761 758 764 757 760 761 768 775 751 750 729 726 724 721 717 714 710 704
782 778 774 772 772 772 772 769 768 769 800 757 754 746 746 753 747 742 739 745 756 757 760 763 755 758 761 758 754 761 754 759 759 765 766 763 772 708 717 723 723 714 712 712 709
778 774 773 773 772 770 768 766 768 788 789 762 755 757 757 750 747 741 741 741 746 755 756 758 749 752 755 753 754 756 761 768 772 778 786 763 765 723 725 722 722 715 712 710 706
775 772 771 772 772 770 767 766 786 793 762 770 768 761 762 759 755 750 747 760 764 768 768 761 759 754 754 762 762 768 784 806 797 785 776 757 762 732 722 715 713 714 710 706 703
773 772 772 772 772 769 767 778 787 771 773 763 764 763 767 764 761 758 758 768 762 765 777 780 777 761 758 762 768 768 776 800 785 780 769 755 758 737 715 711 709 709 708 702 697
773 772 772 772 772 770 776 791 791 774 768 769 768 769 771 765 765 766 765 765 761 763 777 778 775 756 754 754 761 766 774 768 778 773 781 760 737 724 707 708 705 706 702 699 695
776 774 772 772 772 771 786 784 778 766 765 765 775 769 775 771 770 771 767 757 763 760 762 769 779 760 755 753 754 761 759 776 790 779 772 750 740 728 713 705 704 702 700 697 693
778 779 774 773 771 779 799 787 773 764 763 767 770 772 771 769 768 769 766 757 754 759 761 768 778 768 760 762 763 764 767 772 778 792 791 774 739 716 713 708 708 702 696 696 691
786 788 775 773 786 799 790 779 771 765 760 760 762 764 767 767 767 767 766 759 753 755 762 765 779 781 766 748 750 754 761 765 785 780 770 759 720 706 707 705 704 697 692 692 687
796 794 779 775 800 799 790 780 772 767 766 764 763 763 763 766 773 763 758 749 750 756 760 764 778 778 762 753 751 749 755 756 759 765 755 757 718 700 700 700 700 696 694 689 682
798 801 792 789 795 792 795 786 777 768 767 765 765 763 767 767 765 766 759 750 750 751 748 756 770 767 767 758 762 753 748 745 747 753 743 733 709 707 706 705 700 696 692 687 682
804 809 809 809 801 802 799 787 780 778 770 769 767 765 770 773 769 767 759 756 750 748 749 754 766 768 757 751 749 746 742 738 739 732 734 717 714 695 701 703 701 696 690 683 682
812 815 811 810 805 801 793 786 785 781 780 776 774 772 772 775 770 770 766 763 758 748 748 760 761 759 753 747 744 737 729 725 721 716 715 709 706 694 696 700 697 694 689 682 678
812 812 814 808 806 803 797 792 791 792 779 774 775 777 773 766 763 760 758 752 747 747 754 760 762 768 744 739 737 735 717 714 713 710 712 712 697 695 696 695 694 694 690 683 677